Probability
90 87 84 87 87 81 90 90 90 77 65 42 42 26 29 45 45 55 77 94 94 100 100 100 97 94 90 94 97 94 97 100 97 94 94 97 90 90 84 77 77 77 68
87 87 87 90 84 84 87 84 74 74 65 55 42 48 48 42 48 48 71 84 90 94 100 97 100 97 94 90 90 97 97 100 97 94 94 100 97 90 84 84 90 87 74
77 81 81 77 77 84 71 71 65 61 61 52 45 48 48 48 45 55 55 68 68 87 94 97 100 94 94 94 90 94 94 97 97 90 87 94 94 94 94 87 90 94 84
65 74 71 71 71 65 65 71 61 58 52 45 48 55 55 48 48 52 45 55 61 42 68 87 90 87 81 81 74 71 77 87 87 87 90 90 94 94 97 94 94 94 90
52 52 65 61 61 55 61 42 65 52 52 52 29 42 39 42 42 32 35 45 48 52 39 58 74 77 68 74 71 71 71 77 81 81 81 84 87 94 94 97 94 94 90
52 48 52 45 39 52 58 55 58 48 45 55 13 26 42 32 35 35 32 29 39 39 42 35 55 52 65 74 71 68 71 65 71 77 77 77 84 81 81 81 81 87 77
48 52 39 42 52 61 55 48 48 45 48 55 35 29 35 42 35 42 29 23 26 26 19 39 39 42 42 48 55 65 68 61 58 61 68 71 81 81 74 71 65 55 61
52 35 52 58 58 61 48 45 45 55 39 42 19 10 10 16 32 10 16 29 26 26 19 13 26 26 32 39 13 42 48 52 52 61 55 45 58 58 65 61 61 45 35
52 55 45 48 55 52 58 45 45 39 35 23 26 13 6 6 13 16 10 10 13 19 13 23 19 26 26 32 35 10 35 42 42 39 58 58 45 29 29 39 52 52 19
45 42 39 39 42 45 52 39 45 35 19 29 29 26 3 3 3 0 10 10 6 10 10 3 3 13 16 16 23 13 13 10 13 32 42 45 45 26 23 26 35 35 32
48 29 26 35 39 39 45 32 29 19 32 23 19 13 3 10 10 3 0 3 6 6 6 16 6 10 10 10 13 6 6 3 3 10 16 19 23 29 29 29 32 39 42
52 32 29 29 26 32 29 26 19 10 16 10 6 6 3 6 0 0 0 0 0 3 3 6 6 3 6 6 0 0 3 0 0 3 6 3 0 6 6 13 16 26 29
45 52 23 32 29 29 23 19 16 16 13 16 6 6 6 3 3 0 0 0 0 3 0 3 6 6 0 3 3 0 0 0 0 0 0 0 0 0 0 3 6 6 16
35 45 35 29 26 26 13 19 16 13 13 10 10 6 13 3 0 0 0 0 0 0 0 3 6 6 0 3 3 0 0 0 0 0 0 0 0 0 0 0 0 0 3
32 29 29 19 19 16 13 16 13 13 13 13 10 10 6 3 3 0 0 0 0 0 0 0 0 0 0 0 0 0 3 0 0 0 0 0 0 0 0 0 0 0 0
35 32 23 16 19 19 16 16 19 10 10 13 13 13 13 6 6 0 0 0 0 0 0 0 0 0 0 0 0 0 0 0 0 0 0 0 0 0 0 0 0 0 0
39 32 23 23 23 23 16 16 10 13 10 10 10 10 13 10 6 3 0 0 0 0 0 0 0 0 0 0 0 0 0 0 0 0 0 0 0 0 0 0 0 0 0
45 42 32 29 23 19 19 16 13 10 10 10 10 10 10 10 26 3 3 3 3 0 0 0 0 0 3 6 0 0 0 0 0 0 0 0 0 0 0 0 0 0 0
52 42 39 32 26 23 23 19 13 10 13 19 23 19 19 19 23 10 13 3 3 3 0 0 0 0 0 0 0 0 0 0 0 0 0 0 0 0 0 0 0 0 0
48 42 42 39 35 26 23 19 23 23 26 26 26 26 26 26 26 23 10 10 3 3 3 3 0 0 0 0 0 0 0 0 0 0 0 0 0 0 0 0 0 0 0
39 42 39 42 42 23 10 23 19 13 23 23 23 23 19 6 3 3 3 3 6 3 3 3 0 0 0 0 0 0 0 0 0 0 0 0 0 0 0 0 0 0 0
45 42 42 39 39 6 0 0 6 13 23 23 19 16 19 6 3 0 0 0 0 3 3 0 0 0 0 0 0 0 0 0 0 0 0 0 0 0 0 0 0 0 0
52 52 45 35 32 26 0 0 0 6 10 10 13 16 6 0 0 0 0 0 0 0 0 0 0 0 0 0 0 0 0 0 0 0 0 0 0 0 0 0 0 0 0
58 58 52 39 42 29 0 0 0 0 0 3 3 10 16 10 0 0 3 0 0 0 0 0 0 0 0 0 0 0 0 0 0 0 0 0 0 0 0 0 0 0 0
61 52 55 55 45 29 3 0 0 0 0 0 0 0 3 3 3 0 0 0 0 0 0 0 0 0 0 0 0 0 0 0 0 0 0 0 0 0 0 0 0 0 0
65 45 45 45 39 39 13 0 0 0 0 0 0 3 0 0 0 0 0 0 0 0 0 0 0 0 0 0 0 0 0 0 0 0 0 0 0 0 0 0 0 0 0
Height
5890 5890 5891 5891 5891 5890 5890 5890 5890 5890 5890 5889 5889 5889 5889 5889 5888 5889 5890 5891 5891 5892 5893 5894 5895 5896 5897 5898 5899 5900 5901 5902 5903 5905 5906 5907 5908 5910 5911 5912 5913 5914 5915
5889 5890 5890 5890 5890 5890 5889 5889 5889 5889 5889 5888 5888 5888 5888 5888 5888 5888 5889 5889 5890 5890 5891 5892 5892 5893 5894 5895 5896 5897 5898 5899 5900 5902 5903 5904 5906 5907 5909 5910 5912 5913 5914
5888 5888 5888 5888 5889 5888 5888 5888 5888 5888 5888 5887 5887 5887 5887 5887 5887 5887 5887 5888 5888 5889 5889 5889 5890 5891 5891 5892 5893 5894 5895 5895 5897 5898 5900 5901 5903 5904 5906 5908 5909 5911 5912
5886 5887 5887 5887 5887 5887 5887 5887 5887 5887 5887 5886 5886 5886 5886 5886 5886 5886 5886 5886 5886 5887 5887 5887 5887 5888 5888 5889 5889 5890 5891 5892 5893 5894 5896 5898 5899 5901 5903 5905 5906 5908 5909
5884 5885 5886 5886 5886 5886 5886 5886 5886 5885 5885 5885 5885 5885 5885 5885 5884 5884 5884 5884 5884 5884 5884 5884 5884 5885 5885 5885 5886 5886 5887 5887 5889 5890 5892 5894 5896 5898 5899 5901 5903 5905 5906
5883 5884 5885 5885 5886 5886 5886 5885 5885 5885 5884 5884 5884 5884 5884 5883 5883 5883 5882 5882 5882 5882 5882 5882 5882 5882 5882 5882 5882 5883 5883 5884 5884 5886 5887 5889 5891 5893 5895 5897 5899 5901 5902
5882 5883 5884 5884 5885 5885 5885 5885 5884 5884 5884 5883 5883 5883 5883 5882 5881 5881 5880 5880 5880 5879 5879 5879 5879 5879 5879 5879 5879 5879 5880 5880 5880 5882 5883 5884 5886 5888 5890 5892 5894 5896 5898
5880 5882 5883 5883 5884 5884 5884 5884 5883 5883 5883 5883 5882 5882 5882 5882 5880 5879 5879 5878 5877 5877 5876 5876 5876 5875 5875 5875 5875 5875 5876 5876 5877 5877 5878 5880 5881 5883 5885 5886 5889 5891 5893
5879 5880 5882 5882 5883 5883 5883 5883 5883 5883 5882 5882 5881 5881 5880 5880 5879 5878 5877 5876 5875 5874 5873 5873 5872 5872 5871 5872 5871 5871 5871 5872 5872 5873 5874 5875 5876 5877 5879 5881 5883 5885 5887
5878 5879 5881 5881 5882 5882 5882 5882 5882 5882 5881 5881 5880 5879 5879 5878 5877 5876 5875 5874 5873 5872 5871 5870 5869 5868 5867 5867 5867 5867 5867 5867 5868 5868 5869 5869 5871 5872 5873 5874 5876 5878 5880
5877 5878 5879 5880 5881 5881 5881 5881 5881 5881 5880 5880 5879 5878 5877 5876 5875 5874 5873 5872 5871 5869 5868 5867 5865 5864 5863 5863 5862 5862 5861 5862 5862 5863 5863 5864 5865 5866 5867 5868 5870 5871 5873
5875 5877 5878 5879 5880 5880 5880 5880 5880 5879 5879 5878 5877 5876 5875 5874 5873 5872 5870 5869 5868 5867 5865 5864 5862 5861 5859 5858 5857 5857 5856 5856 5856 5857 5857 5858 5858 5859 5860 5861 5863 5864 5866
5874 5875 5876 5878 5878 5879 5878 5878 5878 5878 5877 5876 5875 5874 5873 5872 5870 5869 5868 5866 5865 5863 5862 5860 5859 5857 5855 5854 5853 5851 5851 5850 5849 5850 5850 5851 5852 5852 5853 5854 5855 5857 5859
5872 5874 5875 5876 5876 5877 5876 5876 5876 5875 5875 5874 5873 5872 5870 5869 5868 5866 5865 5863 5861 5860 5858 5856 5855 5853 5851 5849 5848 5846 5845 5844 5843 5843 5843 5843 5844 5844 5845 5847 5848 5849 5851
5870 5872 5873 5873 5874 5874 5874 5874 5873 5873 5872 5871 5870 5869 5867 5866 5864 5863 5861 5859 5858 5855 5854 5852 5850 5848 5846 5844 5843 5841 5839 5838 5837 5836 5836 5835 5835 5836 5837 5838 5839 5840 5842
5868 5869 5870 5870 5871 5871 5871 5870 5870 5869 5868 5867 5866 5865 5863 5862 5860 5858 5857 5855 5853 5851 5849 5846 5845 5843 5841 5839 5837 5835 5833 5832 5830 5829 5828 5828 5827 5827 5828 5828 5829 5831 5832
5865 5865 5866 5867 5867 5867 5867 5866 5866 5865 5864 5863 5861 5860 5859 5857 5855 5854 5852 5850 5848 5846 5844 5841 5839 5837 5835 5833 5830 5829 5827 5825 5824 5822 5821 5820 5819 5819 5819 5819 5819 5820 5822
5861 5861 5862 5862 5862 5862 5862 5861 5861 5860 5859 5857 5856 5854 5853 5851 5849 5847 5846 5844 5842 5840 5838 5835 5833 5830 5828 5826 5824 5822 5820 5818 5816 5815 5813 5812 5811 5810 5809 5809 5809 5810 5811
5856 5857 5857 5857 5857 5856 5856 5856 5855 5854 5853 5851 5850 5848 5847 5845 5843 5841 5839 5837 5835 5833 5831 5829 5826 5824 5821 5819 5816 5814 5812 5810 5808 5806 5805 5804 5802 5801 5800 5800 5799 5800 5800
5851 5851 5851 5851 5851 5850 5850 5849 5848 5847 5846 5844 5843 5841 5840 5838 5836 5834 5832 5830 5827 5825 5823 5821 5819 5816 5814 5811 5808 5806 5804 5802 5800 5798 5796 5795 5793 5792 5790 5790 5789 5789 5789
5845 5845 5845 5845 5844 5844 5843 5842 5841 5840 5838 5837 5835 5833 5831 5830 5828 5825 5824 5821 5819 5817 5814 5812 5810 5808 5805 5802 5800 5797 5795 5793 5791 5788 5787 5785 5783 5782 5781 5779 5778 5778 5778
5838 5838 5838 5837 5837 5836 5835 5834 5832 5831 5830 5828 5827 5825 5823 5821 5819 5817 5814 5812 5810 5808 5805 5803 5801 5799 5796 5793 5790 5787 5785 5783 5781 5779 5776 5775 5773 5772 5770 5769 5768 5767 5766
5830 5830 5830 5829 5829 5827 5826 5825 5823 5822 5820 5819 5817 5815 5813 5811 5809 5807 5805 5802 5800 5797 5795 5793 5791 5788 5786 5783 5780 5777 5774 5772 5770 5767 5765 5764 5762 5760 5759 5757 5757 5756 5755
5822 5821 5821 5820 5819 5818 5816 5815 5813 5811 5810 5809 5807 5805 5803 5801 5799 5797 5794 5792 5790 5787 5784 5782 5780 5777 5774 5771 5768 5766 5763 5761 5758 5755 5752 5752 5750 5748 5747 5746 5744 5743 5743
5813 5812 5811 5810 5809 5808 5806 5805 5802 5801 5800 5798 5796 5794 5792 5791 5788 5785 5783 5781 5779 5776 5773 5770 5768 5766 5763 5760 5756 5753 5751 5748 5746 5744 5740 5738 5738 5736 5735 5733 5732 5731 5730
5803 5802 5801 5800 5799 5797 5796 5794 5791 5789 5788 5786 5785 5783 5781 5779 5776 5773 5771 5769 5766 5764 5760 5757 5755 5753 5750 5747 5743 5740 5737 5734 5732 5731 5728 5725 5724 5722 5722 5721 5719 5718 5717
Wind_Speed
6 5 5 4 4 4 5 4 4 5 4 5 5 5 6 8 8 8 9 9 10 10 11 12 13 13 13 13 14 14 16 16 16 15 15 14 12 11 10 9 8 7 6
6 6 5 4 4 5 5 5 5 4 4 4 5 5 5 6 7 9 9 10 10 11 11 12 13 14 14 15 15 15 16 18 19 18 17 16 15 14 13 12 11 10 9
7 5 4 4 5 5 5 5 5 4 4 5 5 5 5 6 8 8 9 10 11 12 12 13 14 15 15 15 16 17 17 18 20 21 20 19 18 17 16 15 14 13 12
6 5 4 4 4 4 5 5 5 5 5 5 5 5 5 6 7 8 9 10 11 12 12 13 14 14 15 15 16 17 18 19 19 21 21 22 21 20 19 18 17 16 15
6 5 3 3 4 4 5 5 5 5 5 5 5 5 5 6 7 8 9 10 10 11 12 12 13 14 15 16 16 16 17 17 20 21 22 23 23 22 22 21 20 19 18
5 4 3 3 4 4 4 4 5 5 5 5 5 5 6 6 7 8 9 10 11 12 12 13 14 15 15 16 16 16 16 16 18 20 22 24 25 24 24 24 23 22 20
5 4 4 3 3 3 4 4 5 5 6 6 6 7 7 8 8 9 10 11 11 12 13 14 14 15 16 16 16 16 16 16 17 18 21 23 25 26 26 26 26 25 23
5 4 3 3 3 3 3 4 5 6 6 7 7 7 8 8 9 10 11 11 12 13 14 14 15 16 17 17 17 17 17 17 17 18 19 21 24 26 28 28 27 28 27
5 4 3 3 3 3 3 4 5 6 7 8 8 9 9 9 10 11 11 12 13 13 14 15 16 17 17 18 18 19 19 19 19 19 19 20 22 24 27 29 30 29 29
6 4 3 3 2 2 3 4 5 6 7 8 9 10 11 11 11 12 12 12 13 14 15 16 17 17 18 19 19 20 21 21 21 21 21 22 22 23 25 27 29 31 32
5 4 3 3 3 3 4 5 6 7 8 9 10 11 12 12 13 14 14 14 15 15 16 17 18 19 19 19 20 21 22 22 22 23 23 23 24 24 26 26 27 30 32
6 5 5 4 4 4 5 6 7 8 9 10 11 12 13 14 15 15 16 16 16 17 17 18 18 19 20 20 20 21 22 23 24 24 25 25 26 26 26 27 28 29 31
7 7 6 6 6 6 7 8 9 10 11 12 13 14 15 15 16 17 17 18 18 18 19 19 20 20 21 21 21 22 22 23 24 25 27 27 28 28 29 29 30 30 30
8 8 8 8 8 9 9 10 11 12 13 14 15 16 16 17 18 18 19 19 20 20 20 21 21 21 22 22 22 23 24 24 25 25 26 28 29 31 31 32 32 33 34
10 10 10 10 11 11 12 13 14 15 16 17 17 18 19 19 20 20 21 21 21 22 23 23 23 23 23 23 24 24 25 25 26 26 27 27 29 31 32 33 34 35 35
12 13 13 13 14 15 16 16 17 18 18 19 20 21 21 22 22 23 23 23 23 24 25 25 25 24 25 25 25 25 26 26 27 28 28 28 29 30 32 34 35 36 37
15 15 16 16 17 18 19 19 20 21 21 22 23 23 24 24 25 25 25 25 26 26 26 27 27 26 26 27 27 27 27 27 28 28 29 30 30 30 31 33 35 36 37
17 18 19 19 20 21 22 22 23 24 25 25 25 26 26 27 27 28 27 27 27 28 28 28 29 29 28 28 29 29 29 28 28 29 29 30 31 31 32 33 34 36 37
20 20 21 22 22 23 24 25 25 26 27 28 28 28 28 29 30 30 29 29 30 30 30 30 30 30 30 30 30 31 30 30 30 30 30 30 31 32 33 33 34 35 37
22 23 23 24 25 26 27 28 28 29 29 30 31 31 31 31 32 32 32 32 32 32 32 32 32 32 32 32 32 32 32 32 31 31 32 31 32 33 33 34 35 35 36
24 25 26 26 27 28 29 30 31 32 32 32 33 33 34 33 33 34 34 34 34 34 34 34 34 33 34 34 34 34 34 33 33 33 33 33 33 34 34 35 36 36 37
26 27 27 28 29 30 31 32 33 34 34 34 34 35 36 36 36 36 36 37 37 36 36 36 36 36 36 36 36 36 36 35 35 36 35 35 35 35 35 36 36 36 37
29 29 30 31 32 34 35 35 36 37 37 37 37 37 37 37 37 37 37 37 38 38 38 38 38 38 38 38 39 38 38 38 38 38 38 37 37 37 36 36 37 37 37
30 31 32 33 35 36 37 38 39 39 39 38 38 38 38 38 38 39 39 39 39 39 40 40 40 40 41 41 41 41 41 40 40 40 41 39 38 38 38 38 38 38 38
33 33 34 35 37 38 39 40 41 41 41 41 41 40 40 40 41 41 41 41 41 42 42 43 43 43 43 43 43 43 43 43 41 41 42 41 40 40 39 39 39 39 39
37 38 38 39 40 40 42 42 43 43 43 43 43 43 43 43 43 44 44 44 44 44 45 45 45 45 45 44 45 45 45 44 43 42 42 43 42 41 40 39 39 39 39
Wind_Direction
284 282 280 291 304 309 312 308 307 308 306 302 296 288 279 272 282 278 274 273 272 267 264 264 264 265 265 265 262 257 253 249 245 244 243 240 238 237 237 238 238 237 238
274 277 288 296 301 308 313 310 313 315 314 310 300 293 288 284 288 281 277 277 277 273 270 269 267 267 267 267 267 261 260 255 247 243 242 241 240 239 239 239 239 239 239
264 269 287 299 307 311 312 314 315 312 313 316 310 299 294 289 292 291 283 282 280 278 276 273 272 272 271 271 268 265 263 262 252 245 243 242 240 240 239 239 240 240 240
253 263 279 296 311 317 317 317 316 314 317 321 321 317 311 305 302 298 290 287 284 281 280 279 279 279 276 274 273 271 268 265 258 250 247 245 243 242 240 240 240 241 241
242 252 266 293 318 321 321 326 329 334 333 331 329 325 324 315 311 306 296 293 292 289 285 284 285 283 283 281 277 275 273 270 260 255 249 246 245 245 243 241 241 241 242
232 239 260 288 313 324 330 338 348 350 347 340 336 333 329 324 318 312 305 299 295 293 291 289 289 289 287 286 283 280 276 273 267 259 254 250 247 246 245 244 242 242 243
229 238 259 280 309 333 342 347 353 355 354 349 345 339 332 327 323 319 313 307 301 296 293 291 290 291 290 288 283 279 277 274 271 266 260 255 251 248 246 247 246 243 243
226 235 251 271 306 335 341 349 356 1 360 353 347 342 337 332 327 324 320 314 309 306 302 298 293 291 290 290 287 282 279 275 273 270 265 258 255 252 249 247 248 246 245
222 230 245 267 298 324 345 354 357 357 355 350 346 343 340 337 332 329 326 321 317 313 309 305 301 296 293 290 288 286 283 279 275 272 270 265 260 257 254 251 249 248 247
219 224 244 272 297 325 340 347 346 344 343 342 341 340 337 335 332 329 328 323 320 318 315 311 306 301 297 293 290 287 284 280 277 273 271 268 266 261 257 256 252 249 249
217 225 248 264 283 306 324 332 333 334 335 336 336 335 334 332 330 328 327 324 321 318 316 314 310 307 304 299 295 290 286 281 278 275 273 270 267 265 260 258 256 253 252
220 230 242 256 273 293 309 319 323 326 327 329 330 330 330 329 329 327 325 324 322 320 318 316 312 308 306 303 299 295 290 285 280 275 273 270 268 266 264 260 257 256 254
228 237 247 256 268 285 299 309 314 318 319 320 322 323 324 324 324 323 323 322 321 319 318 316 313 309 306 304 302 298 294 290 285 279 275 271 269 267 265 263 259 257 257
234 243 250 259 271 283 293 300 305 309 311 313 315 316 317 318 318 318 319 319 318 317 316 315 313 310 306 304 302 300 297 294 290 285 280 274 271 268 265 263 262 260 258
241 250 257 266 276 284 289 295 300 302 305 308 309 310 311 313 313 314 315 315 315 314 313 313 312 309 307 305 302 300 297 295 292 289 285 280 275 270 267 265 262 261 259
248 255 265 271 277 283 288 292 296 298 300 303 305 306 307 307 308 309 310 311 311 312 312 312 312 309 306 304 302 300 298 295 292 289 287 284 280 275 271 267 264 262 260
255 261 267 273 278 283 287 291 293 295 297 299 300 301 302 303 304 305 305 306 307 309 310 310 310 309 307 305 303 301 298 296 294 290 287 285 283 280 276 271 267 264 262
262 266 269 274 278 281 285 288 291 293 295 296 298 299 300 301 302 302 302 302 304 306 307 307 307 307 306 304 303 302 299 296 294 292 289 286 284 281 279 276 272 268 265
265 268 271 274 277 280 283 286 289 291 293 294 295 297 298 299 299 300 300 300 301 303 303 303 304 304 304 303 302 301 299 297 294 293 291 288 285 282 279 277 275 272 268
269 271 274 276 279 281 283 286 288 290 291 293 294 295 296 296 297 298 298 298 299 300 301 301 301 301 301 301 301 300 298 296 295 293 292 289 287 284 281 278 277 274 271
272 275 277 278 280 283 285 286 287 289 291 292 293 294 294 294 295 295 296 296 297 298 299 299 299 300 300 300 300 299 297 296 294 293 291 290 288 285 282 279 278 276 273
274 276 278 279 281 283 286 287 287 289 289 290 291 291 292 293 293 294 294 294 296 296 296 297 298 298 298 299 299 298 297 295 294 292 291 290 289 286 283 280 277 276 275
274 276 278 279 280 282 284 286 287 288 288 287 288 289 290 291 292 292 292 292 293 294 295 295 297 297 297 298 298 297 297 296 294 292 290 289 288 287 284 282 280 277 274
277 278 278 279 282 283 283 285 286 287 287 288 288 289 289 291 291 291 291 292 292 293 293 294 295 295 296 296 296 296 296 295 294 292 290 289 287 286 285 283 281 278 275
277 278 279 280 282 282 283 284 286 286 286 286 287 287 288 289 290 289 290 291 292 292 291 292 293 294 294 294 294 294 294 294 292 290 288 288 287 286 284 282 281 278 276
277 278 279 280 282 282 283 284 285 286 285 285 285 286 287 289 289 289 290 291 292 291 290 291 292 292 293 292 292 293 293 292 291 289 287 287 286 285 284 282 280 278 275